Location: Newark
(47.3150°N, 5.1150°E)
Time: 20:34:13
(UTC+00:00)

O/OREOS (USA 219) - Pass Details

Date: 21 December 2019
Orbit: 621 x 646 km, 72.0° (Epoch: 22 May)

Event Time Altitude Azimuth Distance (km) Brightness Sun altitude
Exits shadow 04:48:58 79° 164° (SSE) 656 ? -25.0°
Drops below altitude 10° 04:53:13 10° 157° (SSE) 2,016 ? -24.3°
Sets 04:55:28 0° 157° (SSE) 2,915 ? -23.9°
